Probability
0 0 0 0 0 0 0 0 0 0 0 0 0 0 0 0 0 0 0 0 0 0 0 0 0 0 0 0 0 0 0 0 0 0 0 0 0 0 0 0 0 0 0 0
0 0 0 0 0 0 0 0 0 0 0 0 0 0 0 0 0 0 0 0 0 0 0 0 0 0 0 0 0 0 0 0 0 0 0 0 0 0 0 0 0 0 0 0
0 0 0 0 0 0 0 0 0 0 0 0 0 0 0 0 0 0 0 0 0 0 0 0 0 0 0 0 0 0 0 0 0 0 0 0 0 0 0 0 0 0 0 0
0 0 0 0 0 0 0 0 0 0 0 0 0 0 0 0 0 0 0 0 0 0 0 0 0 0 0 0 0 0 0 0 0 0 0 0 0 0 0 0 0 0 0 0
0 0 0 0 0 0 0 0 0 0 0 0 0 0 0 0 0 0 0 0 0 0 0 0 0 0 0 0 0 0 0 0 0 0 0 0 0 0 0 0 0 0 0 0
0 0 0 0 0 0 0 0 0 0 0 0 0 0 0 0 0 0 0 0 0 0 0 0 0 0 0 0 0 0 0 0 0 0 0 0 0 0 0 0 0 0 0 0
0 0 0 0 0 0 0 0 0 0 0 0 0 0 0 0 0 0 0 0 0 0 0 0 0 0 0 0 0 0 0 0 0 0 0 0 0 0 0 0 0 0 0 0
0 0 0 0 0 0 0 0 0 0 0 0 0 0 0 0 0 0 0 0 0 0 0 0 0 0 0 0 0 0 0 0 0 0 0 0 0 0 0 0 0 0 0 0
0 0 0 0 0 0 0 0 0 0 0 0 0 0 0 0 0 0 0 0 0 0 0 0 0 0 0 0 0 0 0 0 0 0 0 0 0 0 0 0 0 0 0 0
0 0 0 0 0 0 0 0 0 0 0 0 0 0 0 0 0 0 0 0 0 0 0 0 0 0 0 0 0 0 0 0 0 0 0 0 0 0 0 0 0 0 0 0
0 0 0 0 0 0 0 0 0 0 0 0 0 0 0 0 0 0 0 0 0 0 0 0 0 0 0 0 0 0 0 0 0 0 0 0 0 0 0 0 0 0 0 0
0 0 0 0 0 0 0 0 0 0 0 0 0 0 0 0 0 0 0 0 0 0 0 0 0 0 0 0 0 0 0 0 0 0 0 0 0 0 0 0 0 0 0 0
0 0 0 0 0 0 0 0 0 0 0 0 0 0 0 0 0 0 0 0 0 0 0 0 0 0 0 0 0 0 0 0 0 0 0 0 0 0 0 0 0 0 0 0
0 0 0 0 0 0 0 0 0 0 0 0 0 0 0 0 0 0 0 0 0 0 0 0 0 0 0 0 0 0 0 0 0 0 0 0 0 0 0 0 0 0 0 0
0 0 0 0 0 0 0 0 0 0 0 0 0 0 0 0 0 0 0 0 0 0 0 0 0 0 0 0 0 0 0 0 0 0 0 0 0 0 0 0 0 0 0 0
0 0 0 0 0 0 0 0 0 0 0 0 0 0 0 0 0 0 0 0 0 0 0 0 0 0 0 0 0 0 0 0 0 0 0 0 0 0 0 0 0 0 0 0
0 0 0 0 0 0 0 0 0 0 0 0 0 0 0 0 0 0 0 0 0 0 0 0 0 0 0 0 0 0 0 0 0 0 0 0 0 0 0 0 0 0 0 0
0 0 0 0 0 0 0 0 0 0 0 0 0 0 0 0 0 0 0 0 0 0 0 0 0 0 0 0 0 0 0 0 0 0 0 0 0 0 0 0 0 0 0 0
0 0 0 0 0 0 0 0 0 0 0 0 0 0 0 0 0 0 0 0 0 0 0 0 0 0 0 0 0 0 0 0 0 0 0 0 0 0 0 0 0 0 0 0
0 0 0 0 0 0 0 0 0 0 0 0 0 0 0 0 0 0 0 0 0 0 0 0 0 0 0 0 0 0 0 0 0 0 0 0 0 0 0 0 0 0 0 0
0 0 0 0 0 0 0 0 0 0 0 0 0 0 0 0 0 0 0 0 0 0 0 0 0 0 0 0 0 0 0 0 0 0 0 0 0 0 0 0 0 0 0 0
0 0 0 0 0 0 0 0 0 0 0 0 0 0 0 0 0 0 0 0 0 0 0 0 0 0 0 0 0 0 0 0 0 0 0 0 0 0 0 0 0 0 0 0
0 0 0 0 0 0 0 0 0 0 0 0 0 0 0 0 0 0 0 0 0 0 0 0 0 0 0 0 0 0 0 0 0 0 0 0 0 0 0 0 0 0 0 0
0 0 0 0 0 0 0 0 0 0 0 0 0 0 0 0 0 0 0 0 0 0 0 0 0 0 0 0 0 0 0 0 0 0 0 0 0 0 0 0 0 0 0 0
0 0 0 0 0 0 0 0 0 0 0 0 0 0 0 0 0 0 0 0 0 0 0 0 0 0 0 0 0 0 0 0 0 0 0 0 0 0 0 0 0 0 0 0
0 0 0 0 0 0 0 0 0 0 0 0 0 0 0 0 0 0 0 0 0 0 0 0 0 0 0 0 0 0 0 0 0 0 0 0 0 0 0 0 0 0 0 0
0 0 0 0 0 0 0 0 0 0 0 0 0 0 0 0 0 0 0 0 0 0 0 0 0 0 0 0 0 0 0 0 0 0 0 0 0 0 0 0 0 0 0 0
Wind_Speed
6 10 17 17 21 21 22 19 15 16 18 15 11 9 7 7 6 5 5 5 5 5 5 5 5 5 5 4 4 3 4 4 4 3 2 3 3 4 5 6 7 8 9 9
5 7 14 16 21 24 26 26 21 15 17 13 9 6 6 6 6 6 6 6 6 5 5 5 6 5 5 5 4 4 4 4 2 2 2 2 3 3 4 4 4 5 7 8
7 6 6 14 26 28 26 25 24 25 23 7 6 7 6 6 6 7 6 6 6 5 5 5 6 6 6 5 4 4 3 3 2 2 3 2 3 3 4 4 4 5 6 7
6 9 13 14 14 18 22 25 23 22 14 12 10 7 7 7 7 7 6 5 5 3 3 3 3 4 4 4 4 4 3 3 2 3 3 3 3 3 3 3 4 4 5 6
8 10 8 7 13 23 22 22 23 24 19 12 7 6 9 7 6 7 6 4 3 2 2 1 2 4 4 4 4 4 3 3 3 3 3 4 3 3 3 3 3 3 3 5
7 9 15 14 11 12 12 19 18 19 19 14 10 12 13 6 6 4 2 1 1 1 2 3 3 4 5 4 3 3 3 3 3 3 4 3 3 3 2 3 3 3 3 3
8 7 11 7 11 16 16 18 11 16 16 14 16 15 6 6 4 4 3 3 3 3 4 3 3 5 4 3 2 1 2 3 3 3 3 3 3 3 3 3 4 4 4 3
9 8 12 6 13 16 10 4 7 10 11 12 11 7 5 6 6 5 4 4 4 5 5 5 4 4 4 2 2 3 3 4 3 3 3 3 4 4 4 4 4 4 4 3
11 10 3 8 8 6 5 6 5 5 4 6 6 6 6 6 6 5 5 4 4 5 6 5 5 4 4 2 3 4 4 3 3 3 3 3 4 4 4 3 3 4 4 4
4 5 4 4 3 2 3 4 4 4 4 6 6 7 7 6 6 5 5 4 4 6 6 5 5 5 4 3 3 4 4 3 3 3 3 3 2 2 3 3 3 3 4 4
6 3 3 4 4 3 3 4 5 4 3 5 8 7 7 7 6 5 5 4 5 6 6 5 5 6 5 4 3 4 4 3 3 3 3 2 2 1 1 1 2 3 3 4
7 6 5 5 3 4 5 4 5 5 4 4 6 8 8 7 6 6 6 6 6 6 6 6 6 6 5 4 3 4 4 3 2 2 2 2 2 2 1 0 1 2 2 3
1 1 1 2 3 3 3 3 4 5 6 6 6 7 8 7 7 7 7 7 7 7 6 6 6 6 5 5 4 4 4 3 2 2 2 2 2 1 1 1 1 1 2 4
3 3 2 2 2 4 5 6 7 8 7 7 7 8 8 9 8 8 7 6 6 7 7 6 6 6 5 4 4 4 4 4 3 2 2 2 1 1 1 1 0 1 1 2
6 4 2 4 6 6 6 7 8 7 7 7 7 7 8 9 9 7 6 6 7 8 7 6 6 6 6 4 4 4 4 3 2 2 2 2 1 1 1 1 0 0 0 1
4 5 6 6 6 5 5 6 7 6 6 7 7 7 8 9 9 8 6 5 6 7 5 5 6 4 5 4 4 3 3 4 3 2 2 2 1 1 1 0 0 1 1 1
2 2 2 3 4 5 5 5 5 6 6 7 6 7 8 9 9 8 7 7 7 7 5 5 4 4 5 5 4 3 3 3 3 2 2 1 1 1 0 0 1 1 1 2
4 3 3 3 4 6 6 6 6 6 5 5 6 7 7 7 7 6 5 5 6 7 6 5 4 4 5 5 4 3 2 2 2 2 1 1 1 1 1 1 1 2 2 2
6 7 7 7 6 7 6 6 6 6 6 5 6 7 6 6 6 5 4 4 5 5 4 5 6 5 4 5 4 3 2 2 2 2 1 1 1 1 1 1 1 2 2 2
7 7 8 8 8 7 7 6 6 6 5 5 7 7 7 6 5 5 5 5 4 2 2 3 3 3 4 4 5 3 2 2 2 1 1 1 1 1 1 1 2 2 2 2
6 6 7 7 7 8 7 6 5 6 5 5 6 6 5 4 3 3 3 3 2 3 2 2 2 2 2 3 3 2 2 2 1 1 1 1 1 1 1 2 2 2 2 2
4 5 5 5 6 6 5 5 5 5 5 5 5 5 4 4 3 3 3 2 1 2 2 1 1 2 3 3 2 1 1 1 1 1 1 1 2 2 2 2 2 3 3 3
4 4 4 4 4 3 4 4 4 4 4 4 3 3 3 2 1 1 1 1 1 2 1 1 2 3 2 1 1 1 1 1 1 1 2 2 2 2 3 3 3 3 3 3
3 3 3 3 2 3 3 3 3 3 2 2 2 1 1 1 1 1 1 1 1 2 2 3 4 3 2 1 1 1 2 2 2 2 2 2 3 3 3 3 4 4 4 5
2 2 2 2 2 2 2 2 2 2 2 1 1 0 0 0 0 0 1 1 2 3 2 4 5 4 2 2 2 2 2 3 3 3 3 3 4 4 4 4 4 4 4 4
1 1 1 1 1 1 1 1 0 0 0 1 1 0 0 0 1 1 1 2 3 3 3 3 3 3 3 3 3 3 4 4 4 4 4 4 5 5 5 5 6 5 5 5
1 1 0 0 0 0 0 0 0 1 0 1 1 1 1 1 1 2 3 3 3 3 3 3 3 3 3 4 4 4 4 4 4 5 5 5 5 5 5 6 6 5 5 6
Wind_Direction
204 159 168 189 197 199 207 212 214 225 231 229 217 204 198 197 196 201 211 226 235 237 239 229 223 221 215 215 208 202 211 222 229 231 224 209 201 195 189 189 191 187 187 186
213 184 178 192 200 203 211 216 225 237 242 232 222 217 213 209 207 216 225 231 237 239 233 227 223 218 208 207 198 186 203 216 211 195 192 188 180 170 168 173 172 173 182 181
195 171 158 209 204 204 211 218 219 230 235 224 225 229 222 221 220 221 228 236 241 237 229 228 219 204 200 195 176 174 188 193 185 178 176 178 163 157 168 171 168 173 179 182
150 151 210 227 200 203 214 221 221 231 235 223 224 227 229 217 215 225 230 236 241 235 235 223 196 179 167 154 155 166 178 181 178 173 170 162 162 169 165 160 170 175 177 180
171 192 231 244 196 197 204 224 219 228 234 229 225 256 256 232 215 219 220 216 217 211 198 148 138 140 132 135 144 161 182 188 181 174 169 166 174 174 160 156 164 166 169 173
173 189 218 225 185 176 187 240 220 218 225 216 202 232 243 206 200 198 171 142 135 109 93 99 110 120 130 146 156 182 188 177 164 165 170 173 171 160 147 153 156 147 154 165
187 205 241 222 163 148 185 230 201 205 216 204 207 222 206 145 147 135 116 98 93 90 83 76 95 115 129 137 167 161 135 136 140 150 154 152 141 134 136 135 133 136 138 141
187 203 234 190 157 176 200 167 173 196 205 202 205 191 152 137 133 122 109 93 92 94 78 57 69 104 115 112 104 108 116 119 124 129 129 133 134 131 135 140 142 142 141 141
193 213 197 165 178 182 147 160 173 181 189 170 168 165 150 139 128 117 110 100 92 100 88 60 50 76 96 76 93 104 105 108 111 113 115 126 136 141 141 150 155 157 161 167
193 227 188 183 149 129 123 148 152 148 148 145 149 144 133 127 119 111 101 98 99 102 95 74 54 55 62 69 89 105 107 105 106 113 112 111 117 138 152 164 169 168 175 178
201 205 157 204 185 164 127 112 108 97 106 133 134 131 130 127 124 118 106 95 94 98 96 85 71 59 48 51 80 97 99 98 99 96 104 107 104 115 151 179 192 185 189 183
205 189 180 200 189 162 150 150 142 126 102 89 119 127 122 118 114 111 104 96 93 90 91 84 75 62 40 34 67 97 98 93 91 94 93 97 97 64 55 93 242 235 216 197
242 216 151 134 136 133 140 129 115 115 123 111 100 113 118 113 107 102 96 93 95 95 90 84 76 59 30 23 54 80 93 95 91 93 100 103 106 111 67 20 18 281 237 219
26 49 95 87 99 90 101 100 93 85 82 91 98 101 106 105 102 97 92 90 93 91 85 81 75 52 16 18 56 71 78 80 82 87 94 103 112 119 126 132 17 331 313 254
5 13 102 96 84 82 88 98 98 94 90 82 85 96 104 108 103 94 86 90 91 83 75 72 68 38 4 20 57 69 73 71 69 74 76 80 86 95 108 131 192 243 318 308
1 44 70 89 94 88 89 99 108 107 100 96 91 88 92 98 97 87 72 71 87 81 64 62 56 17 1 21 52 65 65 66 71 76 76 74 71 74 69 92 218 229 222 233
61 71 72 99 98 88 78 81 100 105 100 99 99 101 103 103 95 84 73 70 79 77 60 51 40 15 15 23 40 55 60 60 60 63 63 64 63 60 37 315 272 268 258 254
23 36 58 101 116 106 87 74 79 84 87 94 100 101 101 104 106 102 99 99 91 74 48 24 27 36 27 22 31 40 56 63 61 62 58 49 29 12 344 315 299 292 293 297
39 50 54 58 69 89 89 80 73 73 74 85 94 93 89 88 93 98 98 94 88 75 29 2 27 40 28 14 26 32 49 60 63 55 49 34 17 355 333 316 308 305 306 299
48 55 63 61 56 66 77 74 76 73 67 82 95 94 86 76 75 85 89 80 62 49 357 359 19 32 27 14 16 25 36 44 48 44 35 22 338 312 304 299 294 295 297 291
47 56 65 71 66 59 58 63 76 75 62 66 87 96 96 84 69 77 101 98 69 25 9 17 30 27 18 4 8 24 34 34 27 10 342 312 298 289 284 282 281 279 278 279
34 51 61 67 74 66 50 52 65 74 71 68 72 83 92 88 76 68 65 84 96 10 1 12 18 10 2 358 1 6 8 357 325 302 287 280 276 275 274 273 270 271 271 271
32 43 54 60 71 80 67 56 58 67 73 72 72 70 73 69 46 77 105 93 50 350 355 343 327 331 354 354 335 326 313 294 282 275 270 267 264 264 266 268 267 267 270 270
34 39 44 48 72 83 69 51 50 56 65 65 63 58 59 62 50 57 75 86 351 337 325 301 305 321 346 310 288 281 276 274 272 272 272 270 267 265 265 266 268 267 266 268
23 27 38 51 62 63 69 71 62 59 57 56 48 69 167 280 228 337 347 310 304 310 300 302 308 315 312 282 275 270 265 262 263 266 267 267 265 263 261 260 259 262 262 261
9 11 15 15 15 45 64 79 72 40 28 7 338 253 191 220 253 266 270 274 275 277 277 278 282 286 273 267 265 264 263 265 266 259 255 257 259 260 260 259 259 258 258 257
322 317 321 329 319 211 180 191 209 250 258 259 282 284 278 271 268 271 275 276 275 272 268 266 264 262 262 262 263 263 261 261 259 258 258 256 255 255 257 258 258 259 259 259